Change the Weather History Date:

Thursday, July 25, 2013

  Actual Average Record
Temperature  
Mean Temperature 68 °F 62 °F  
Max Temperature 84 °F 82 °F 92 °F (1983)
Min Temperature 51 °F 42 °F 32 °F (1995)
Degree Days  
Heating Degree Days 0 4  
Month to date heating degree days 31 118  
Since 1 June heating degree days 225 428  
Since 1 July heating degree days 31 118  
Cooling Degree Days 3 1  
Month to date cooling degree days 63 13  
Year to date cooling degree days 84 14  
Since 1 June cooling degree days 84 14  
Growing Degree Days 16 (Base 50)    
Moisture  
Dew Point 53 °F    
Average Humidity 60    
Maximum Humidity 86    
Minimum Humidity 34    
Precipitation  
Precipitation 0.47 in - 0.47 in (2013)
Month to date precipitation 0.59  
Year to date precipitation 5.92  
Sea Level Pressure  
Sea Level Pressure 30.20 in    
Wind  
Wind Speed 3 mph (South)    
Max Wind Speed 20 mph    
Max Gust Speed 25 mph    
Visibility 8 miles    
Events Rain , Thunderstorm    
T = Trace of Precipitation, MM = Missing Value Source: NWS Daily Summary

Daily Weather History Graph

Daily Weather History Graph

Search for Another Location

Airport or City:

Trip Planner

Search our weather history database for the weather conditions in past years. The results will help you decide how hot, cold, wet, or windy it might be!

Date:

Astronomy

Jul. 25, 2013 Rise Set
Actual Time 5:55 AM PDT 8:17 PM PDT
Civil Twilight 5:24 AM PDT 8:47 PM PDT
Nautical Twilight 4:47 AM PDT 9:24 PM PDT
Astronomical Twilight 4:06 AM PDT 10:05 PM PDT
Moon 10:03 PM PDT (7/25) 9:27 AM PDT (7/25)
Length of Visible Light 15h 22m
Length of Day
14h 22m
Waning Gibbous, 87% of the Moon is Illuminated
Jul 25
Waning Gibbous
Jul 29
Last Quarter
Aug 6
New
Aug 14
First Quarter
Aug 20
Full

Hourly Weather History & Observations

Time (PDT) Temp. Dew Point Humidity Pressure Visibility Wind Dir Wind Speed Gust Speed Precip Events Conditions
12:53 AM 59.0 °F 48.9 °F 69% 30.05 in 10.0 mi Calm Calm - N/A   Clear
1:53 AM 57.0 °F 48.0 °F 72% 30.07 in 10.0 mi Calm Calm - N/A   Clear
2:53 AM 55.0 °F 46.9 °F 74% 30.06 in 10.0 mi Calm Calm - N/A   Clear
3:53 AM 53.1 °F 46.9 °F 80% 30.07 in 10.0 mi Calm Calm - N/A   Clear
4:53 AM 53.1 °F 46.0 °F 77% 30.07 in 10.0 mi Calm Calm - N/A   Clear
5:53 AM 51.1 °F 45.0 °F 80% 30.10 in 10.0 mi Calm Calm - N/A   Clear
6:53 AM 52.0 °F 46.0 °F 80% 30.11 in 10.0 mi South 3.5 mph - N/A   Clear
7:53 AM 60.1 °F 48.0 °F 64% 30.11 in 10.0 mi Calm Calm - N/A   Clear
8:53 AM 71.1 °F 50.0 °F 47% 30.09 in 10.0 mi Calm Calm - N/A   Clear
9:53 AM 75.0 °F 52.0 °F 44% 30.09 in 10.0 mi Variable 3.5 mph - N/A   Partly Cloudy
10:53 AM 81.0 °F 51.1 °F 35% 30.07 in 10.0 mi NNE 5.8 mph - N/A   Clear
11:53 AM 82.0 °F 51.1 °F 34% 30.07 in 10.0 mi NNE 6.9 mph - N/A   Clear
12:53 PM 78.1 °F 48.0 °F 35% 30.08 in 10.0 mi NNE 6.9 mph - N/A   Mostly Cloudy
1:18 PM 69.8 °F 57.2 °F 64% 30.29 in 8.0 mi Calm Calm - 0.02 in Rain , Thunderstorm Light Rain
1:33 PM 71.6 °F 59.0 °F 64% 30.29 in 10.0 mi WNW 3.5 mph - 0.02 in Rain , Thunderstorm Light Rain
1:50 PM 68.0 °F 60.8 °F 78% 30.32 in 1.5 mi Calm Calm - 0.11 in Rain , Thunderstorm Light Thunderstorms and Rain
1:53 PM 66.0 °F 60.1 °F 81% 30.16 in 1.0 mi Variable 4.6 mph - 0.15 in Rain , Thunderstorm Heavy Thunderstorms and Rain
2:12 PM 66.2 °F 59.0 °F 78% 30.31 in 3.0 mi Variable 4.6 mph - 0.08 in Rain , Thunderstorm Thunderstorms and Rain
2:27 PM 64.4 °F 57.2 °F 77% 30.31 in 2.5 mi South 10.4 mph - 0.17 in Rain , Thunderstorm Thunderstorms and Rain
2:34 PM 62.6 °F 55.4 °F 77% 30.32 in 3.0 mi SSW 8.1 mph - 0.20 in Rain , Thunderstorm Rain
2:39 PM 62.6 °F 55.4 °F 77% 30.32 in 2.5 mi SSW 11.5 mph 19.6 mph 0.23 in Rain Rain
2:51 PM 60.8 °F 53.6 °F 77% 30.32 in 2.0 mi Calm Calm - 0.30 in Rain , Thunderstorm Thunderstorms and Rain
2:53 PM 60.1 °F 55.0 °F 83% 30.18 in 1.8 mi Calm Calm - 0.30 in Rain , Thunderstorm Thunderstorms and Rain
3:03 PM 60.8 °F 55.4 °F 82% 30.32 in 2.5 mi South 5.8 mph - 0.02 in Rain Light Rain
3:06 PM 62.6 °F 55.4 °F 77% 30.32 in 6.0 mi South 8.1 mph - 0.02 in Rain Light Rain
3:16 PM 62.6 °F 55.4 °F 77% 30.33 in 10.0 mi South 6.9 mph - 0.02 in Rain , Thunderstorm Light Thunderstorms and Rain
3:31 PM 64.4 °F 55.4 °F 73% 30.32 in 10.0 mi Calm Calm - 0.02 in Rain Light Rain
3:48 PM 64.4 °F 57.2 °F 77% 30.31 in 10.0 mi South 8.1 mph - 0.02 in Thunderstorm Mostly Cloudy
3:53 PM 64.0 °F 55.9 °F 75% 30.17 in 10.0 mi SSE 6.9 mph - 0.02 in Thunderstorm Mostly Cloudy
4:03 PM 64.4 °F 55.4 °F 73% 30.32 in 10.0 mi South 8.1 mph - N/A   Overcast
4:53 PM 66.0 °F 54.0 °F 65% 30.20 in 10.0 mi SSW 10.4 mph 21.9 mph 0.00 in Thunderstorm Thunderstorm
5:14 PM 66.2 °F 51.8 °F 60% 30.35 in 10.0 mi Variable 3.5 mph 17.3 mph 0.00 in Rain Light Rain
5:43 PM 62.6 °F 55.4 °F 77% 30.34 in 10.0 mi West 3.5 mph - 0.00 in Thunderstorm Overcast
5:53 PM 64.0 °F 55.9 °F 75% 30.20 in 10.0 mi Calm Calm - 0.00 in   Overcast
6:53 PM 64.9 °F 55.9 °F 73% 30.19 in 10.0 mi South 5.8 mph - 0.00 in   Overcast
7:53 PM 62.1 °F 57.0 °F 84% 30.18 in 10.0 mi Calm Calm - N/A   Clear
8:53 PM 60.1 °F 55.0 °F 83% 30.16 in 10.0 mi South 4.6 mph - N/A   Clear
9:53 PM 59.0 °F 54.0 °F 83% 30.17 in 10.0 mi Calm Calm - N/A   Partly Cloudy
10:53 PM 59.0 °F 53.1 °F 81% 30.15 in 10.0 mi South 4.6 mph - N/A   Mostly Cloudy
11:53 PM 57.9 °F 53.1 °F 84% 30.15 in 10.0 mi Calm Calm - N/A   Mostly Cloudy